Meadow Lake, CO

11:25 PM MST on February 22, 2018 (GMT -0700)
Meadow Lake

Weather History for KFLY - April, 2013

Change the Weather History Date:

Friday, April 12, 2013

  Actual Average (KCOS) Record (KCOS)
Temperature  
Mean Temperature 42 °F -  
Max Temperature 56 °F 57 °F 77 °F (2010)
Min Temperature 28 °F 32 °F 4 °F (1959)
Degree Days  
Heating Degree Days 24    
Moisture  
Dew Point 29 °F    
Average Humidity 72    
Maximum Humidity 100    
Minimum Humidity 29    
Precipitation  
Precipitation 0.00 in - - ()
Sea Level Pressure  
Sea Level Pressure 29.95 in    
Wind  
Wind Speed 7 mph (SSW)    
Max Wind Speed 21 mph    
Max Gust Speed 28 mph    
Visibility 9 miles    
Events Fog , Snow    
Averages and records for this station are not official NWS values.
T = Trace of Precipitation, MM = Missing Value Source: NWS Daily Summary

Daily Weather History Graph

Daily Weather History Graph

Search for Another Location

Airport or City:

Trip Planner

Search our weather history database for the weather conditions in past years. The results will help you decide how hot, cold, wet, or windy it might be!

Date:

Astronomy

Apr. 12, 2013 Rise Set
Actual Time 6:25 AM MDT 7:32 PM MDT
Civil Twilight 5:58 AM MDT 8:00 PM MDT
Nautical Twilight 5:25 AM MDT 8:33 PM MDT
Astronomical Twilight 4:51 AM MDT 9:07 PM MDT
Moon 7:38 AM MDT (4/12) 10:04 PM MDT (4/12)
Length of Visible Light 14h 02m
Length of Day
13h 07m
Waxing Crescent, 5% of the Moon is Illuminated
Apr 12
Waxing Crescent
Apr 18
First Quarter
Apr 25
Full
May 2
Last Quarter
May 9
New

Hourly Weather History & Observations

Time (MDT) Temp. Windchill Dew Point Humidity Pressure Visibility Wind Dir Wind Speed Gust Speed Precip Events Conditions
12:15 AM 34.9 °F 32.0 °F 30.2 °F 83% 29.94 in 10.0 mi NW 3.5 mph - N/A   Overcast
12:35 AM 35.1 °F 31.0 °F 30.2 °F 82% 29.94 in 10.0 mi NW 4.6 mph - N/A   Overcast
12:55 AM 34.9 °F - 30.7 °F 85% 29.94 in 10.0 mi Calm Calm - N/A   Overcast
1:15 AM 34.7 °F 28.1 °F 30.9 °F 86% 29.95 in 10.0 mi SSW 8.1 mph - N/A Snow Light Snow
1:35 AM 34.0 °F 27.2 °F 32.0 °F 92% 29.95 in 10.0 mi South 8.1 mph - N/A Snow Light Snow
1:55 AM 33.8 °F 28.6 °F 32.0 °F 93% 29.95 in 10.0 mi South 5.8 mph - N/A   Overcast
2:15 AM 34.0 °F 31.0 °F 32.0 °F 92% 29.94 in 10.0 mi South 3.5 mph - N/A   Overcast
2:35 AM 34.0 °F 29.8 °F 32.0 °F 92% 29.94 in 10.0 mi South 4.6 mph - N/A   Overcast
2:55 AM 34.0 °F 28.8 °F 32.0 °F 92% 29.94 in 10.0 mi South 5.8 mph - N/A   Overcast
3:15 AM 33.8 °F 27.0 °F 31.1 °F 90% 29.93 in 10.0 mi South 8.1 mph - N/A   Overcast
3:35 AM 32.4 °F 25.3 °F 30.2 °F 92% 29.93 in 10.0 mi SSW 8.1 mph - N/A   Overcast
3:55 AM 32.2 °F 28.9 °F 30.2 °F 92% 29.93 in 10.0 mi SW 3.5 mph - N/A   Overcast
4:15 AM 31.1 °F 23.1 °F 28.6 °F 90% 29.92 in 10.0 mi SSW 9.2 mph - N/A   Mostly Cloudy
4:35 AM 30.7 °F 22.0 °F 28.2 °F 90% 29.92 in 10.0 mi SSW 10.4 mph - N/A   Clear
4:55 AM 30.6 °F 22.4 °F 27.7 °F 89% 29.92 in 10.0 mi SSW 9.2 mph - N/A   Clear
5:15 AM 29.8 °F 21.5 °F 27.3 °F 90% 29.92 in 10.0 mi SW 9.2 mph - N/A   Clear
5:35 AM 28.9 °F 21.1 °F 26.6 °F 91% 29.92 in 10.0 mi SW 8.1 mph - N/A   Clear
5:55 AM 29.3 °F 21.5 °F 27.1 °F 92% 29.92 in 10.0 mi SSW 8.1 mph - N/A   Clear
6:15 AM 29.5 °F 22.5 °F 26.8 °F 90% 29.92 in 10.0 mi SSW 6.9 mph - N/A   Clear
6:35 AM 29.5 °F 21.8 °F 27.0 °F 90% 29.92 in 10.0 mi SSW 8.1 mph - N/A   Clear
6:55 AM 30.2 °F 25.4 °F 27.5 °F 90% 29.92 in 10.0 mi SSW 4.6 mph - N/A   Clear
7:15 AM 30.2 °F - 27.3 °F 89% 29.92 in 10.0 mi Calm Calm - N/A   Clear
7:35 AM 30.7 °F - 27.9 °F 89% 29.92 in 10.0 mi Calm Calm - N/A   Clear
7:55 AM 32.0 °F 26.4 °F 28.4 °F 87% 29.93 in 10.0 mi SSW 5.8 mph - N/A   Clear
8:15 AM 32.2 °F 26.7 °F 28.4 °F 86% 29.93 in 10.0 mi SSW 5.8 mph - N/A   Clear
8:35 AM 34.3 °F 27.0 °F 28.2 °F 78% 29.93 in 10.0 mi SSW 9.2 mph - N/A   Clear
8:55 AM 35.8 °F 27.8 °F 27.3 °F 71% 29.93 in 10.0 mi SSW 11.5 mph - N/A   Clear
9:15 AM 37.8 °F 29.8 °F 27.5 °F 67% 29.93 in 10.0 mi SSW 12.7 mph - N/A   Clear
9:35 AM 39.7 °F 32.3 °F 27.5 °F 62% 29.93 in 10.0 mi South 12.7 mph 17.3 mph N/A   Clear
9:55 AM 41.0 °F 33.9 °F 27.9 °F 60% 29.93 in 10.0 mi SSW 12.7 mph 18.4 mph N/A   Clear
10:15 AM 42.1 °F 36.1 °F 28.0 °F 58% 29.93 in 10.0 mi SSW 10.4 mph 17.3 mph N/A   Clear
10:35 AM 44.2 °F 38.4 °F 27.9 °F 53% 29.93 in 10.0 mi SSW 11.5 mph 19.6 mph N/A   Clear
10:55 AM 46.4 °F 41.5 °F 27.3 °F 47% 29.93 in 10.0 mi SSW 10.4 mph 19.6 mph N/A   Clear
11:15 AM 45.5 °F 39.6 °F 26.4 °F 47% 29.93 in 10.0 mi SSW 12.7 mph 18.4 mph N/A   Scattered Clouds
11:35 AM 46.0 °F 41.4 °F 27.1 °F 48% 29.93 in 10.0 mi SSW 9.2 mph 18.4 mph N/A   Scattered Clouds
11:55 AM 47.1 °F - 26.6 °F 45% 29.93 in 10.0 mi South 8.1 mph 19.6 mph N/A   Mostly Cloudy
12:15 PM 46.2 °F 45.0 °F 26.1 °F 45% 29.94 in 10.0 mi WSW 3.5 mph - N/A   Mostly Cloudy
12:35 PM 46.8 °F - 26.6 °F 45% 29.94 in 10.0 mi South 5.8 mph - N/A   Overcast
12:55 PM 49.8 °F - 24.6 °F 37% 29.93 in 10.0 mi South 6.9 mph 19.6 mph N/A   Scattered Clouds
1:15 PM 46.9 °F - 24.8 °F 42% 29.94 in 10.0 mi SSW 5.8 mph - N/A   Scattered Clouds
1:35 PM 49.5 °F - 27.3 °F 42% 29.93 in 10.0 mi SSW 12.7 mph 21.9 mph N/A   Mostly Cloudy
1:55 PM 48.2 °F - 27.9 °F 45% 29.93 in 10.0 mi SSW 5.8 mph - N/A   Clear
2:15 PM 47.7 °F - 27.0 °F 45% 29.93 in 10.0 mi South 5.8 mph 17.3 mph N/A   Mostly Cloudy
2:35 PM 49.8 °F - 26.2 °F 40% 29.93 in 10.0 mi SSW 8.1 mph - N/A   Mostly Cloudy
2:55 PM 54.0 °F - 23.7 °F 31% 29.93 in 10.0 mi South 3.5 mph - N/A   Mostly Cloudy
3:15 PM 51.8 °F - 24.1 °F 34% 29.92 in 10.0 mi NE 8.1 mph - N/A   Mostly Cloudy
3:35 PM 53.8 °F - 23.4 °F 31% 29.91 in 10.0 mi Calm Calm - N/A   Scattered Clouds
3:55 PM 55.8 °F - 23.5 °F 29% 29.91 in 10.0 mi ESE 6.9 mph - N/A   Clear
4:15 PM 53.6 °F - 23.0 °F 30% 29.91 in 10.0 mi NE 8.1 mph - N/A   Mostly Cloudy
4:35 PM 49.8 °F - 20.1 °F 31% 29.92 in 10.0 mi North 6.9 mph 21.9 mph N/A   Overcast
4:55 PM 49.5 °F - 32.2 °F 51% 29.94 in 10.0 mi NNE 20.7 mph 27.6 mph N/A   Scattered Clouds
5:15 PM 48.7 °F - 31.8 °F 52% 29.94 in 10.0 mi NNE 19.6 mph 24.2 mph N/A   Clear
5:55 PM 47.8 °F - 31.8 °F 54% 29.96 in 10.0 mi NNE 12.7 mph 21.9 mph N/A   Scattered Clouds
6:15 PM 45.5 °F 38.6 °F 32.0 °F 59% 29.96 in 10.0 mi NE 16.1 mph 24.2 mph N/A   Scattered Clouds
6:35 PM 43.9 °F 36.8 °F 31.6 °F 62% 29.96 in 10.0 mi NE 15.0 mph 19.6 mph N/A   Clear
6:55 PM 42.1 °F 35.2 °F 32.0 °F 67% 29.96 in 10.0 mi NE 12.7 mph - N/A   Clear
7:15 PM 39.6 °F 32.5 °F 32.2 °F 75% 29.97 in 10.0 mi ENE 11.5 mph - N/A   Clear
7:35 PM 37.4 °F 30.3 °F 32.0 °F 81% 29.97 in 10.0 mi NNE 10.4 mph 16.1 mph N/A   Clear
7:55 PM 34.7 °F 29.6 °F 31.3 °F 87% 29.99 in 10.0 mi ENE 5.8 mph - N/A   Clear
8:15 PM 33.3 °F 27.9 °F 31.5 °F 93% 29.98 in 10.0 mi NNE 5.8 mph - N/A   Clear
8:35 PM 32.5 °F 29.3 °F 31.1 °F 94% 29.99 in 10.0 mi North 3.5 mph - N/A   Clear
8:55 PM 31.8 °F 27.3 °F 30.2 °F 94% 30.00 in 10.0 mi North 4.6 mph - N/A   Clear
9:15 PM 30.9 °F 27.5 °F 29.3 °F 94% 30.00 in 10.0 mi NNE 3.5 mph - N/A   Clear
9:35 PM 31.6 °F 26.0 °F 30.6 °F 96% 30.01 in 10.0 mi NE 5.8 mph - N/A   Clear
9:55 PM 30.4 °F 23.6 °F 29.5 °F 96% 30.02 in 10.0 mi NE 6.9 mph - N/A   Scattered Clouds
10:15 PM 31.5 °F 24.2 °F 31.1 °F 99% 30.02 in 4.0 mi NE 8.1 mph - N/A   Mostly Cloudy
10:35 PM 31.6 °F 26.0 °F 31.3 °F 99% 30.02 in 0.5 mi North 5.8 mph - N/A Fog Light Freezing Fog
10:55 PM 31.1 °F 25.4 °F 30.9 °F 99% 30.01 in 0.2 mi North 5.8 mph - N/A Fog Light Freezing Fog
11:15 PM 30.4 °F - 30.2 °F 99% 30.01 in 0.2 mi Calm Calm - N/A Fog Light Freezing Fog
11:35 PM 29.3 °F 21.5 °F 29.1 °F 99% 30.03 in 0.2 mi South 8.1 mph - N/A Fog Light Freezing Fog
11:55 PM 29.3 °F 25.6 °F 29.3 °F 100% 30.02 in 0.5 mi SE 3.5 mph - N/A Fog Light Freezing Fog